CW5752 Weather Reports


time (UTC)temp
C
wind
direction
speed
KPH
gust
KPH
rain 1hr
cm
rain 24hr
cm
rain mn
cm
humidity
%
barometer
mb
20260902230020 34 121 0.0 3.2 0.00 0.00 0.00 50 1014.1
20260902225101 35 128 0.0 4.8 0.00 0.00 0.00 49 1014.2
20260902224020 35 140 0.0 4.8 0.00 0.00 0.00 48 1014.2
20260902223020 35 162 0.0 11.3 0.00 0.00 0.00 49 1014.2
20260902222015 35 157 1.6 11.3 0.00 0.00 0.00 44 1014.2
20260902221020 36 169 0.0 6.4 0.00 0.00 0.00 46 1014.2
20260902220020 35 157 0.0 4.8 0.00 0.00 0.00 44 1014.2
20260902215020 36 161 1.6 8.0 0.00 0.00 0.00 45 1014.3
20260902214020 35 191 0.0 3.2 0.00 0.00 0.00 46 1014.3
20260902213017 36 176 1.6 6.4 0.00 0.00 0.00 45 1014.5
20260902212023 36 177 1.6 12.9 0.00 0.00 0.00 45 1014.5
20260902211022 36 163 0.0 8.0 0.00 0.00 0.00 42 1014.5
20260902210022 36 179 1.6 9.7 0.00 0.00 0.00 43 1014.6
20260902205023 36 180 1.6 9.7 0.00 0.00 0.00 46 1014.7
20260902204022 36 155 0.0 8.0 0.00 0.00 0.00 46 1014.8
20260902203042 35 187 4.8 11.3 0.00 0.00 0.00 45 1014.7
20260902202017 36 191 3.2 11.3 0.00 0.00 0.00 44 1014.9
20260902201022 36 186 1.6 9.7 0.00 0.00 0.00 48 1015.0
20260902200022 36 162 0.0 4.8 0.00 0.00 0.00 47 1015.1
20260902195022 36 201 1.6 6.4 0.00 0.00 0.00 44 1015.2
20260902194023 36 205 1.6 14.5 0.00 0.00 0.00 45 1015.3
20260902193047 36 183 1.6 8.0 0.00 0.00 0.00 47 1015.5
20260902192017 36 230 0.0 4.8 0.00 0.00 0.00 48 1015.7
20260902191017 36 242 3.2 9.7 0.00 0.00 0.00 46 1015.8
20260902190022 36 184 1.6 12.9 0.00 0.00 0.00 48 1015.9
20260902185023 35 202 1.6 9.7 0.00 0.00 0.00 47 1015.9
20260902184029 36 200 3.2 9.7 0.00 0.00 0.00 45 1016.0
20260902183022 36 211 3.2 8.0 0.00 0.00 0.00 45 1016.0
20260902182022 36 203 1.6 12.9 0.00 0.00 0.00 47 1016.1
20260902181017 36 249 3.2 9.7 0.00 0.00 0.00 47 1016.2
20260902180020 35 187 1.6 11.3 0.00 0.00 0.00 45 1016.3
20260902175022 35 226 3.2 8.0 0.00 0.00 0.00 48 1016.5
20260902174023 35 208 4.8 17.7 0.00 0.00 0.00 46 1016.6
20260902173027 35 230 1.6 9.7 0.00 0.00 0.00 46 1016.7
20260902172024 35 228 1.6 9.7 0.00 0.00 0.00 46 1016.7
20260902171023 35 208 1.6 9.7 0.00 0.00 0.00 49 1016.9
20260902170018 35 229 3.2 9.7 0.00 0.00 0.00 50 1016.9
20260902165047 35 217 4.8 16.1 0.00 0.00 0.00 48 1017.0
20260902164022 35 201 3.2 9.7 0.00 0.00 0.00 50 1017.2
20260902163022 34 195 3.2 9.7 0.00 0.00 0.00 52 1017.1
20260902162022 33 199 1.6 9.7 0.00 0.00 0.00 53 1017.3
20260902161023 33 191 3.2 12.9 0.00 0.00 0.00 55 1017.4
20260902160017 33 218 1.6 11.3 0.00 0.00 0.00 55 1017.5
20260902155017 33 187 1.6 11.3 0.00 0.00 0.00 56 1017.5
20260902154022 32 199 3.2 9.7 0.00 0.00 0.00 57 1017.4
20260902153022 32 199 1.6 9.7 0.00 0.00 0.00 60 1017.5
20260902152022 32 189 3.2 8.0 0.00 0.00 0.00 60 1017.6
20260902151022 31 200 4.8 9.7 0.00 0.00 0.00 61 1017.7
20260902150022 31 203 3.2 8.0 0.00 0.00 0.00 64 1017.6
20260902145017 31 205 1.6 6.4 0.00 0.00 0.00 65 1017.7
20260902144023 30 180 1.6 6.4 0.00 0.00 0.00 66 1017.6
20260902143042 30 183 3.2 8.0 0.00 0.00 0.00 68 1017.6
20260902142027 29 198 1.6 4.8 0.00 0.00 0.00 70 1017.7
20260902141023 28 210 1.6 6.4 0.00 0.00 0.00 72 1017.8
20260902140022 28 234 0.0 4.8 0.00 0.00 0.00 75 1017.8
20260902135017 28 215 0.0 4.8 0.00 0.00 0.00 76 1017.9
20260902134017 27 190 0.0 4.8 0.00 0.00 0.00 78 1017.8
20260902133022 27 190 0.0 4.8 0.00 0.00 0.00 79 1017.8
20260902132022 26 189 0.0 3.2 0.00 0.00 0.00 80 1017.9
20260902131022 26 189 0.0 6.4 0.00 0.00 0.00 83 1017.7
20260902130027 25 0.0 0.0 0.00 0.00 0.00 86 1017.7
20260902125022 24 0.0 0.0 0.00 0.00 0.00 88 1017.6
20260902124017 23 0.0 0.0 0.00 0.00 0.00 90 1017.6
20260902123020 23 0.0 0.0 0.00 0.00 0.00 92 1017.6
20260902122022 22 0.0 0.0 0.00 0.00 0.00 92 1017.7
20260902121042 22 0.0 0.0 0.00 0.00 0.00 93 1017.5
20260902120022 22 0.0 0.0 0.00 0.00 0.00 93 1017.3
20260902115022 22 0.0 0.0 0.00 0.00 0.00 93 1017.2
20260902114027 22 0.0 0.0 0.00 0.00 0.00 93 1017.1
20260902113017 22 0.0 0.0 0.00 0.00 0.00 93 1017.0
20260902112027 22 0.0 0.0 0.00 0.00 0.00 93 1017.0
20260902111022 22 0.0 0.0 0.00 0.00 0.00 93 1016.8
20260902110023 22 0.0 0.0 0.00 0.00 0.00 93 1016.8
20260902105022 22 0.0 0.0 0.00 0.00 0.00 93 1016.6
20260902104027 22 0.0 0.0 0.00 0.00 0.00 93 1016.6
20260902103037 22 0.0 0.0 0.00 0.00 0.00 93 1016.5
20260902102017 22 0.0 0.0 0.00 0.00 0.00 93 1016.5
20260902101022 22 0.0 0.0 0.00 0.00 0.00 93 1016.4
20260902100022 22 0.0 0.0 0.00 0.00 0.00 92 1016.5
20260902095022 22 0.0 0.0 0.00 0.00 0.00 90 1016.5
20260902094020 23 0.0 0.0 0.00 0.00 0.00 92 1016.5
20260902093023 22 0.0 0.0 0.00 0.00 0.00 92 1016.5
20260902092017 22 0.0 0.0 0.00 0.00 0.00 92 1016.5
20260902091022 22 0.0 0.0 0.00 0.00 0.00 92 1016.4
20260902090042 22 0.0 0.0 0.00 0.00 0.00 92 1016.3
20260902085022 23 0.0 0.0 0.00 0.00 0.00 92 1016.3
20260902084023 22 0.0 0.0 0.00 0.00 0.00 92 1016.3
20260902083022 22 0.0 0.0 0.00 0.00 0.00 92 1016.3
20260902082018 22 0.0 0.0 0.00 0.00 0.00 91 1016.3
20260902081037 22 0.0 0.0 0.00 0.00 0.00 91 1016.3
20260902080022 23 0.0 0.0 0.00 0.00 0.00 90 1016.3
20260902075022 23 0.0 0.0 0.00 0.00 0.00 91 1016.3
20260902074027 23 0.0 0.0 0.00 0.00 0.00 91 1016.3
20260902073042 22 0.0 0.0 0.00 0.00 0.00 90 1016.3
20260902072027 22 0.0 0.0 0.00 0.00 0.00 90 1016.3
20260902071037 23 0.0 0.0 0.00 0.00 0.00 90 1016.3
20260902070022 23 0.0 0.0 0.00 0.00 0.00 91 1016.4
20260902065022 23 0.0 0.0 0.00 0.00 0.00 89 1016.4
20260902064042 23 0.0 0.0 0.00 0.00 0.00 87 1016.4
20260902063027 24 0.0 0.0 0.00 0.00 0.00 90 1016.4
20260902062022 23 0.0 0.0 0.00 0.00 0.00 91 1016.4
20260902061023 23 0.0 0.0 0.00 0.00 0.00 89 1016.3
20260902060017 23 0.0 0.0 0.00 0.00 0.00 89 1016.3
20260902055042 23 0.0 0.0 0.00 0.00 0.00 90 1016.3
20260902054022 23 0.0 0.0 0.00 0.00 0.00 88 1016.3
20260902053023 24 0.0 0.0 0.00 0.00 0.00 88 1016.2
20260902052022 24 0.0 0.0 0.00 0.00 0.00 87 1016.2
20260902051022 24 0.0 0.0 0.00 0.00 0.00 87 1016.1
20260902050017 25 0.0 0.0 0.00 0.00 0.00 87 1016.2
20260902045021 25 0.0 0.0 0.00 0.00 0.00 88 1016.1
20260902044021 25 0.0 0.0 0.00 0.00 0.00 88 1016.1
20260902043020 25 0.0 0.0 0.00 0.00 0.00 87 1016.0
20260902042015 25 0.0 0.0 0.00 0.00 0.00 87 1016.0
20260902041021 25 0.0 0.0 0.00 0.00 0.00 85 1016.0
20260902040040 25 0.0 0.0 0.00 0.00 0.00 86 1015.9
20260902035040 25 0.0 0.0 0.00 0.00 0.00 86 1015.9
20260902034021 25 0.0 0.0 0.00 0.00 0.00 84 1016.0
20260902033030 25 0.0 0.0 0.00 0.00 0.00 84 1016.0
20260902032015 25 0.0 0.0 0.00 0.00 0.00 85 1016.1
20260902031016 26 0.0 0.0 0.00 0.00 0.00 84 1016.0
20260902030020 26 0.0 0.0 0.00 0.00 0.00 83 1016.0
20260902025021 26 0.0 0.0 0.00 0.00 0.00 83 1015.9
20260902024021 26 0.0 0.0 0.00 0.00 0.00 82 1015.8
20260902023020 26 0.0 0.0 0.00 0.00 0.00 82 1015.8
20260902022021 26 0.0 0.0 0.00 0.00 0.00 80 1015.8
20260902021015 27 0.0 0.0 0.00 0.00 0.00 79 1015.7
20260902020020 27 0.0 0.0 0.00 0.00 0.00 79 1015.6
20260902015022 26 0.0 0.0 0.00 0.00 0.00 78 1015.4
20260902014021 27 0.0 0.0 0.00 0.00 0.00 77 1015.3
20260902013020 27 0.0 0.0 0.00 0.00 0.00 77 1015.3
20260902012101 27 0.0 0.0 0.00 0.00 0.00 75 1015.2
20260902011016 28 0.0 0.0 0.00 0.00 0.00 74 1015.1
20260902010015 28 0.0 0.0 0.00 0.00 0.00 71 1015.1
20260902005020 28 0.0 0.0 0.00 0.00 0.00 70 1015.0
20260902004021 28 0.0 0.0 0.00 0.00 0.00 71 1015.1
20260902003021 29 0.0 0.0 0.00 0.00 0.00 71 1015.1
20260902002020 29 0.0 0.0 0.00 0.00 0.00 70 1015.1
20260902001042 30 0.0 0.0 0.00 0.00 0.00 68 1015.1
20260902000016 31 0.0 0.0 0.00 0.00 0.00 65 1015.1
20260901235020 32 0.0 1.6 0.00 0.00 0.00 60 1015.2
20260901234021 32 0.0 0.0 0.00 0.00 0.00 59 1015.2
20260901233020 33 0.0 3.2 0.00 0.00 0.00 55 1015.2
20260901232021 33 189 0.0 3.2 0.00 0.00 0.00 51 1015.3
20260901231101 34 189 0.0 3.2 0.00 0.00 0.00 48 1015.2